STARLINK-35156, 65607

Orbit data source: Space-Track

STARLINK-35156, 65607 is a payload satellite owned by SpaceX/Seattle (US) in SSO that was launched on Sat, 13 Sep 2025 UTC via an FALCON 9 launch vehicle from the Air Force Eastern Test Range (AFETR). Payload-class satellites include a variety of spacecraft equipped with specific instruments for various scientific and technological missions. These include communications satellites like Starlink; space stations such as the ISS; scientific satellites like the Hubble; Earth observation satellites from companies like Planet Labs, Umbra, and HawkEye 360; GPS; miniature CubeSats for education and research; and military/defense satellites.

Loading next visibility...
Identifier
65607, 2025-207R
Orbit
SSO
Country
Flag of USUS
Related business
Manufacturer
SpaceX/Seattle
Mission
Operational Commercial Communications
Bus & Motor
STARLINK V2MO, Unknown motor
Mass
575 kg wet, ~530 kg dry
Launch date (UTC)
2025-09-13 (9 months ago)
Launch vehicle
FALCON 9
Launch site
Air Force Eastern Test Range (AFETR)
Object type
Payload
Rocket body
Debris
Shape & HBR
Box + 2 Pan, 17.7 m
Radar Cross Section
36.964 m², Large (>1 m²)

Expand to show TLE details & history
Last TLE update: 14 hours ago

TLE from 14 hours ago
0 STARLINK-35156
1 65607U 25207R   26168.76189959  .00002209  00000-0  15696-3 0  9990
2 65607  97.3460 236.3701 0002518 101.3471 258.8040 15.05656004 43321
Epoch: 2026-06-17T18:17Z
TLE epoch observation values (Epoch: 2026-06-17T18:17:08.124Z)
Latitude
0.00002°
Longitude
56.07131°
Altitude
552.904 km
Speed
7.585 km/s
True Right ascension
15h 45m 28s
True Declination
0° 00' 00"
Sunlit
Object was in full shadow at epoch
Visualization orbit readout
Latitude
Unknown
Longitude
Unknown
Altitude
Unknown
Speed
Unknown
Apparent Right ascension
Unknown
Apparent Declination
Unknown
Sunlit
N/A
Visualization observer readout
Local Sidereal Time
19:15:42
Azimuth
Unknown
Elevation
Unknown
Doppler factor
Unknown
Orbital elements
Apogee altitude
548.219 km
Perigee altitude
544.732 km
Semi-major axis
6,924.612 km
Eccentricity
0.00025
Inclination
97.346°
RAAN
236.3701°
Arg. of periapsis
101.3471°
True anomaly
258.7757°
Mean anomaly
258.804°
Eccentric anomaly
258.78985°
Mean motion
3.7666 °/min
Orbital period
95.58 mins
BSTAR
0.00015696
Loading maneuver chart data...
Computing Atmospheric mass density...
Loading historical data...
Loading historical data...
Loading historical data...
Loading historical data...
Loading historical data...
Loading historical data...
Loading historical data...

Documentation

Showing up to 5 results
|